Regional Weather Roundup
Issued by NWS

Home | Current Version | Previous Version | Graphics & Text | Print | Product List | Glossary On
Versions: 1 2 3 4 5 6 7 8 9 10 11 12 13 14 15 16 17 18 19 20 21 22 23 24 25 26 27 28 29 30 31 32 33 34 35 36 37 38 39 40 41 42 43 44 45 46 47 48 49 50
000
ASUS43 KLOT 300108
RWRIL

ILLINOIS REGIONAL WEATHER ROUNDUP
NATIONAL WEATHER SERVICE CHICAGO/ROMEOVILLE IL
800 PM CDT THU SEP 29 2016

NOTE: "FAIR" INDICATES FEW OR NO CLOUDS BELOW 12,000 FEET WITH NO
SIGNIFICANT WEATHER AND/OR OBSTRUCTIONS TO VISIBILITY.

* THESE STATIONS ARE NOT UNDER NWS QUALITY CONTROL. THEY ALSO MAY NOT
  REPORT WEATHER SUCH AS PRECIPITATION OR FOG.

ILZ001-002-007-009-015-016-024-300200-
NORTHWEST ILLINOIS

CITY           SKY/WX    TMP DP  RH WIND       PRES   REMARKS
MOLINE         CLOUDY    67  53  61 NE10      30.25R
STERLING*      PTCLDY    62  54  74 NE8       30.26R
SAVANNA*       CLOUDY    65  55  68 NE6       30.27S
$$

ILZ003-004-008-010-011-017-018-300200-
NORTH CENTRAL ILLINOIS

CITY           SKY/WX    TMP DP  RH WIND       PRES   REMARKS
ROCKFORD       LGT RAIN  63  55  75 NE10      30.29R
FREEPORT*      PTCLDY    61  54  76 NE6       30.29S
ROCHELLE*      CLOUDY    61  55  81 NE15G28   30.26S
DE KALB*       CLOUDY    60  57  91 N10       30.26S
$$

ILZ005-006-012>014-019>023-300200-
NORTHEAST ILLINOIS

CITY           SKY/WX    TMP DP  RH WIND       PRES   REMARKS
CHICAGO-OHARE  CLOUDY    63  57  81 NE9       30.23R
CHICAGO-MIDWAY CLOUDY    64  56  75 NE17G23   30.22R
AURORA         CLOUDY    63  58  83 N10       30.23S
LANSING*       CLOUDY    62  59  90 NE15      30.21R
JOLIET*        CLOUDY    65  58  80 NE7       30.21S
WAUKEGAN       CLOUDY    62  58  86 NE5       30.25R
DUPAGE AIRPORT CLOUDY    62  57  83 N10       30.23S
KANKAKEE*      PTCLDY    61  58  90 N9        30.18S
WHEELING       CLOUDY    63  57  81 NE9       30.25R
MORRIS*        CLOUDY    62  58  87 CALM      30.21R
ROMEOVILLE*    CLOUDY    63  59  88 NE15      30.21S
NORTHERLY ISL    N/A     62  57  83 NE16        N/A
$$

LMZ740>746-300200-
SOUTHERN LAKE MICHIGAN

STATION/POSITION SKY/WX   TEMP    WIND        PRES    VSBY  WAVE
                          AIR SEA DIR/SP/G                  HT/PER
                          (F)     (DEG/KT/KT) (MB)    (MI)  (FT/S)
SOUTHERN BUOY              64 68   70/ 23/ 27 1023.2R         6/ 5
WILMETTE HARBOR            62 57   80/ 14/ 17   N/A           6/ 6
HARRISON CRIB              64      50/ 24/ 26   N/A
BURNHAM HARBOR             62      40/ 13/ 17   N/A
CALUMET HARBOR             63      30/ 15/ 19 1022.5R
BURNS HARBOR               63      40/ 20/ 23 1022.7R
MICHIGAN CITY              61      20/ 21/ 23   N/A
MICHIGAN CITY 6N           62 65   40/ 17/ 21   N/A           7/ 7
ST. JOSEPH                 60 61   40/ 10/ 14 1022.8          5/ 6
$$

ILZ025>027-034>036-040-047-049-050-058-095>099-300200-
WEST-CENTRAL ILLINOIS

CITY           SKY/WX    TMP DP  RH WIND       PRES   REMARKS
QUINCY         CLOUDY    68  54  60 NE13      30.20R
GALESBURG*     MOCLDY    63  55  76 N9        30.24R
MACOMB*        CLOUDY    66  55  68 NE14G20   30.25R
JACKSONVILLE*  CLOUDY    62  58  88 N13       30.20R
PITTSFIELD*    CLOUDY    67  56  68 NE7       30.21R
$$

ILZ028>032-037-038-041>044-048-051>054-059>061-300200-
CENTRAL ILLINOIS

CITY           SKY/WX    TMP DP  RH WIND       PRES   REMARKS
PONTIAC        CLOUDY    62  62  98 N8        30.20R
BLOOMINGTON    PTCLDY    61  58  90 N16       30.18S
DECATUR        CLOUDY    63  59  87 N17       30.16R
PEORIA         PTCLDY    63  57  81 NE15      30.21R
LACON*         PTCLDY    61  55  82 N6        30.21S
LINCOLN*       CLOUDY    61  60  95 N8        30.18R
SPRINGFIELD    PTCLDY    61  58  90 N12       30.18S
TAYLORVILLE    CLOUDY    59  59  98 N10       30.16R
$$

ILZ033-039-045-046-055>057-062-063-300200-
EAST-CENTRAL ILLINOIS

CITY           SKY/WX    TMP DP  RH WIND       PRES   REMARKS
CHAMPAIGN      CLOUDY    63  57  81 NE12      30.14R
RANTOUL*       CLEAR     62  60  92 N10       30.15S
MATTOON        CLOUDY    60  54  80 NW8       30.12R
PARIS*         PTCLDY    58  52  81 CALM      30.13S
$$

ILZ079-100>102-300200-
SOUTHWEST ILLINOIS

CITY           SKY/WX    TMP DP  RH WIND       PRES   REMARKS
ALTON          CLOUDY    59  59 100 N7        30.17S
BELLEVILLE     LGT RAIN  61  61  99 NW12      30.14S
CAHOKIA*       LGT RAIN  63  58  83 N12       30.17S
SPARTA*        CLOUDY    59  58  97 CALM      30.16S
$$

ILZ064>066-069>071-074>076-080>082-084>086-088>090-092>094-300200-
SOUTH-CENTRAL ILLINOIS

CITY           SKY/WX    TMP DP  RH WIND       PRES   REMARKS
CARBONDALE     PTCLDY    58  58 100 CALM      30.14S
CAIRO*         PTCLDY    58  56  94 NW5       30.15S
EFFINGHAM*     CLEAR     61  59  94 NW7       30.13R
MARION         CLEAR     59  59 100 CALM      30.15R
MT. VERNON     CLEAR     59  54  82 W3        30.13S
CENTRALIA*     MOCLDY    61  60  96 NW6       30.13S
SALEM*         PTCLDY    61  58  90 CALM      30.13S
METROPOLIS*    CLEAR     60  56  88 NW7       30.14S
$$

ILZ067-068-072-073-078-083-087-091-300200-
SOUTHEAST ILLINOIS

CITY           SKY/WX    TMP DP  RH WIND       PRES   REMARKS
LAWRENCEVILLE  MOCLDY    58  54  86 E3        30.11R
FLORA*         CLEAR     60  55  84 NW6       30.11S
FAIRFIELD*       N/A     60  56  86 CALM      30.10S
HARRISBURG*    PTCLDY    59  57  92 NW7       30.12S
ROBINSON*      PTCLDY    51  50  95 NW3       30.12R
CARMI*         CLEAR     55  54  95 W5        30.10S
$$

ABBREVIATIONS USED IN REMARKS
   TC - TEMPERATURE IN CELSIUS
  WCI - WIND CHILL INDEX
   HX - HEAT INDEX
  VSB - VISIBILITY
$$





USA.gov is the U.S. government's official web portal to all federal, state and local government web resources and services.